Tracking 19795 objects as of 18-Jul-2019
HD Live streaming from Space Station
objects crossing your sky now

DIRECTV 1R

Track DIRECTV 1R now!
DIRECTV 1R is classified as:


NORAD ID: 25937
Int'l Code: 1999-056A
Perigee: 36,158.1 km
Apogee: 36,174.3 km
Inclination: 5.3 °
Period: 1,455.2 minutes
Semi major axis: 42537 km
RCS: 3.9811 m2 (large)
Launch date: October 10, 1999
Source: United States (US)
Launch site: SEA LAUNCH (SEAL)

First commercial launch by Sea Launch consortium (American, Russian, Ukrainian companies); 16 Ku-band; video channels directly to home-based dishes; anticipated 50 million homes in North America.
aabbcc
Your satellite tracking list
Your tracking list is empty




NASA's NSSDC Master Catalog

Two Line Element Set (TLE):
1 25937U 99056A   19198.75929402 +.00000042 +00000-0 +00000-0 0  9997
2 25937 005.2988 066.1033 0001912 222.7300 353.7751 00.98957727072215
Source of the keplerian elements: AFSPC